Precipitable_Water
0.53 0.54 0.56 0.57 0.59 0.64 0.68 0.68 0.67 0.68 0.67 0.66 0.63 0.62 0.66 0.69 0.68 0.67 0.66 0.63 0.67 0.64 0.63 0.60 0.57 0.50 0.43 0.31 0.28 0.32 0.34 0.33 0.32 0.34 0.30 0.33 0.30 0.28 0.23 0.27 0.27 0.23 0.26 0.28 0.30 0.30 0.30
0.61 0.60 0.58 0.57 0.59 0.66 0.69 0.68 0.68 0.68 0.68 0.68 0.65 0.60 0.60 0.63 0.62 0.60 0.61 0.61 0.59 0.57 0.56 0.56 0.53 0.42 0.36 0.27 0.32 0.32 0.31 0.30 0.30 0.31 0.27 0.27 0.27 0.33 0.27 0.25 0.24 0.26 0.25 0.25 0.27 0.26 0.27
0.60 0.57 0.54 0.58 0.62 0.70 0.68 0.67 0.68 0.68 0.69 0.68 0.65 0.60 0.56 0.57 0.58 0.57 0.57 0.59 0.57 0.54 0.54 0.53 0.56 0.44 0.32 0.28 0.33 0.30 0.29 0.29 0.30 0.28 0.24 0.24 0.30 0.27 0.30 0.23 0.28 0.26 0.21 0.22 0.22 0.24 0.23
0.54 0.52 0.51 0.51 0.60 0.73 0.70 0.67 0.69 0.70 0.72 0.70 0.67 0.64 0.61 0.59 0.59 0.56 0.54 0.54 0.54 0.49 0.47 0.49 0.50 0.43 0.30 0.36 0.34 0.28 0.29 0.28 0.30 0.28 0.25 0.24 0.26 0.25 0.25 0.28 0.26 0.23 0.21 0.15 0.19 0.22 0.26
0.58 0.57 0.54 0.52 0.56 0.74 0.73 0.72 0.74 0.77 0.79 0.77 0.76 0.72 0.67 0.63 0.61 0.58 0.55 0.56 0.53 0.50 0.47 0.46 0.40 0.36 0.29 0.35 0.28 0.28 0.28 0.25 0.27 0.27 0.24 0.22 0.20 0.20 0.25 0.21 0.18 0.19 0.14 0.17 0.19 0.20 0.23
0.61 0.61 0.59 0.57 0.58 0.77 0.78 0.78 0.79 0.81 0.82 0.82 0.81 0.80 0.74 0.69 0.65 0.60 0.60 0.63 0.56 0.50 0.45 0.44 0.40 0.33 0.30 0.28 0.30 0.28 0.28 0.27 0.25 0.24 0.21 0.21 0.20 0.18 0.18 0.17 0.12 0.13 0.15 0.16 0.16 0.16 0.16
0.71 0.67 0.62 0.57 0.57 0.74 0.80 0.84 0.85 0.85 0.84 0.84 0.84 0.82 0.75 0.71 0.67 0.65 0.60 0.57 0.47 0.44 0.41 0.35 0.33 0.32 0.31 0.32 0.33 0.27 0.28 0.26 0.24 0.22 0.19 0.20 0.18 0.17 0.17 0.17 0.16 0.15 0.15 0.14 0.15 0.16 0.14
0.81 0.73 0.68 0.61 0.57 0.65 0.78 0.82 0.85 0.89 0.87 0.86 0.86 0.86 0.76 0.73 0.69 0.66 0.63 0.51 0.53 0.51 0.37 0.42 0.39 0.35 0.34 0.34 0.29 0.27 0.29 0.23 0.22 0.20 0.22 0.20 0.19 0.21 0.21 0.18 0.17 0.16 0.15 0.15 0.15 0.17 0.15
1.08 1.04 0.96 0.85 0.75 0.69 0.70 0.76 0.80 0.85 0.90 0.91 0.91 0.89 0.80 0.75 0.70 0.64 0.60 0.59 0.71 0.71 0.42 0.41 0.41 0.36 0.34 0.34 0.28 0.27 0.27 0.27 0.25 0.22 0.22 0.21 0.23 0.25 0.22 0.20 0.18 0.18 0.17 0.17 0.16 0.17 0.16
1.21 1.19 1.18 1.16 1.13 1.07 0.99 0.89 0.84 0.86 0.94 0.95 0.95 0.93 0.85 0.75 0.58 0.58 0.55 0.67 0.72 0.72 0.36 0.38 0.37 0.34 0.33 0.32 0.27 0.31 0.32 0.30 0.27 0.23 0.24 0.26 0.27 0.26 0.24 0.22 0.20 0.19 0.20 0.19 0.18 0.16 0.13
1.23 1.23 1.22 1.21 1.22 1.20 1.18 1.15 1.09 1.05 1.01 1.03 0.98 0.94 0.86 0.71 0.60 0.52 0.60 0.67 0.71 0.63 0.23 0.37 0.37 0.39 0.34 0.29 0.30 0.34 0.36 0.31 0.26 0.25 0.27 0.26 0.27 0.27 0.24 0.22 0.23 0.20 0.21 0.20 0.19 0.17 0.16
1.29 1.28 1.26 1.23 1.21 1.20 1.19 1.19 1.17 1.13 1.10 1.06 1.03 0.96 0.85 0.72 0.62 0.64 0.72 0.69 0.63 0.36 0.24 0.33 0.36 0.33 0.33 0.34 0.34 0.35 0.33 0.32 0.30 0.29 0.29 0.28 0.29 0.27 0.26 0.26 0.25 0.23 0.21 0.21 0.20 0.18 0.14
1.42 1.40 1.38 1.33 1.32 1.30 1.27 1.23 1.22 1.21 1.19 1.13 1.09 1.00 0.85 0.75 0.59 0.66 0.76 0.61 0.36 0.28 0.38 0.33 0.33 0.35 0.33 0.34 0.34 0.32 0.29 0.29 0.29 0.27 0.26 0.26 0.27 0.27 0.28 0.25 0.25 0.24 0.21 0.17 0.16 0.15 0.14
1.45 1.43 1.45 1.44 1.42 1.37 1.36 1.35 1.33 1.32 1.28 1.20 1.13 1.03 0.93 0.82 0.69 0.73 0.65 0.47 0.32 0.37 0.37 0.39 0.36 0.35 0.33 0.34 0.32 0.31 0.30 0.30 0.32 0.30 0.26 0.23 0.23 0.27 0.27 0.25 0.24 0.23 0.20 0.18 0.15 0.15 0.15
1.41 1.42 1.39 1.39 1.40 1.41 1.41 1.39 1.35 1.34 1.35 1.29 1.16 1.03 0.93 0.85 0.79 0.83 0.62 0.44 0.42 0.43 0.46 0.43 0.40 0.34 0.33 0.34 0.34 0.32 0.31 0.31 0.32 0.32 0.28 0.27 0.24 0.28 0.27 0.26 0.25 0.23 0.21 0.21 0.18 0.18 0.16
1.28 1.30 1.35 1.39 1.38 1.38 1.39 1.42 1.43 1.38 1.33 1.27 1.11 0.98 0.90 0.85 0.88 0.83 0.65 0.55 0.55 0.57 0.53 0.49 0.42 0.42 0.36 0.36 0.36 0.35 0.33 0.35 0.34 0.35 0.33 0.30 0.27 0.27 0.28 0.27 0.27 0.23 0.23 0.20 0.18 0.15 0.14
1.10 1.14 1.17 1.21 1.24 1.27 1.30 1.34 1.35 1.34 1.31 1.28 1.08 0.83 0.87 0.87 0.91 0.73 0.59 0.58 0.59 0.61 0.57 0.51 0.47 0.47 0.45 0.43 0.41 0.38 0.36 0.39 0.39 0.37 0.34 0.31 0.27 0.27 0.27 0.25 0.23 0.22 0.21 0.20 0.19 0.17 0.15
0.87 0.95 1.00 1.05 1.08 1.10 1.16 1.18 1.24 1.23 1.22 1.13 0.92 0.66 0.88 0.87 0.71 0.66 0.57 0.57 0.57 0.55 0.59 0.55 0.54 0.51 0.47 0.46 0.41 0.38 0.38 0.39 0.42 0.37 0.31 0.31 0.28 0.24 0.23 0.26 0.27 0.24 0.22 0.21 0.19 0.17 0.16
0.59 0.65 0.73 0.82 0.91 0.98 1.01 1.07 1.14 1.14 1.12 1.00 0.78 0.77 0.85 0.80 0.58 0.59 0.62 0.58 0.58 0.54 0.52 0.51 0.49 0.49 0.49 0.46 0.43 0.40 0.38 0.41 0.41 0.37 0.32 0.33 0.27 0.24 0.23 0.25 0.28 0.24 0.24 0.23 0.21 0.19 0.17
0.56 0.59 0.62 0.67 0.71 0.75 0.82 0.91 0.99 1.06 1.07 0.99 0.74 0.57 0.68 0.69 0.64 0.61 0.56 0.53 0.53 0.54 0.52 0.51 0.48 0.49 0.50 0.47 0.47 0.42 0.41 0.40 0.40 0.37 0.36 0.33 0.28 0.27 0.25 0.26 0.25 0.22 0.22 0.23 0.21 0.18 0.17
0.52 0.54 0.58 0.63 0.67 0.69 0.71 0.76 0.82 0.87 0.95 0.95 0.72 0.59 0.65 0.50 0.53 0.52 0.52 0.51 0.48 0.46 0.51 0.51 0.48 0.48 0.49 0.47 0.46 0.44 0.44 0.43 0.40 0.38 0.37 0.30 0.28 0.28 0.27 0.26 0.25 0.24 0.23 0.23 0.20 0.20 0.15
0.51 0.52 0.53 0.54 0.57 0.61 0.67 0.73 0.76 0.77 0.83 0.70 0.63 0.61 0.65 0.55 0.55 0.51 0.46 0.43 0.45 0.43 0.48 0.46 0.46 0.50 0.51 0.49 0.51 0.46 0.44 0.40 0.37 0.37 0.36 0.35 0.29 0.29 0.27 0.28 0.27 0.24 0.23 0.22 0.21 0.18 0.15
0.56 0.54 0.53 0.53 0.55 0.57 0.61 0.66 0.73 0.76 0.72 0.57 0.62 0.65 0.60 0.53 0.50 0.46 0.45 0.47 0.49 0.53 0.48 0.49 0.50 0.50 0.48 0.53 0.51 0.49 0.47 0.42 0.39 0.37 0.36 0.33 0.31 0.28 0.24 0.25 0.23 0.19 0.21 0.21 0.19 0.17 0.13
0.56 0.58 0.58 0.56 0.55 0.55 0.57 0.61 0.68 0.77 0.72 0.65 0.60 0.58 0.45 0.34 0.42 0.46 0.51 0.53 0.51 0.50 0.46 0.50 0.53 0.50 0.50 0.52 0.49 0.44 0.40 0.40 0.39 0.38 0.38 0.33 0.30 0.26 0.24 0.23 0.18 0.22 0.23 0.22 0.18 0.15 0.14
0.50 0.52 0.54 0.57 0.57 0.57 0.56 0.58 0.64 0.71 0.79 0.66 0.65 0.57 0.45 0.31 0.37 0.37 0.40 0.45 0.46 0.45 0.42 0.45 0.49 0.52 0.49 0.43 0.35 0.32 0.33 0.34 0.35 0.37 0.36 0.34 0.29 0.25 0.22 0.21 0.22 0.22 0.23 0.19 0.14 0.12 0.13
0.48 0.50 0.49 0.49 0.52 0.56 0.55 0.55 0.57 0.64 0.72 0.73 0.66 0.68 0.56 0.39 0.33 0.42 0.37 0.41 0.36 0.36 0.37 0.39 0.43 0.49 0.41 0.40 0.34 0.23 0.23 0.30 0.28 0.28 0.32 0.32 0.30 0.24 0.24 0.20 0.18 0.19 0.22 0.18 0.15 0.11 0.13
0.46 0.47 0.46 0.47 0.49 0.50 0.53 0.52 0.51 0.53 0.61 0.70 0.65 0.71 0.59 0.43 0.44 0.45 0.36 0.36 0.42 0.38 0.33 0.38 0.40 0.39 0.41 0.33 0.28 0.24 0.25 0.28 0.27 0.27 0.28 0.28 0.27 0.24 0.23 0.21 0.22 0.24 0.20 0.17 0.10 0.09 0.11
0.44 0.43 0.45 0.45 0.47 0.47 0.47 0.48 0.48 0.47 0.48 0.58 0.59 0.68 0.61 0.48 0.46 0.48 0.47 0.44 0.41 0.40 0.36 0.35 0.36 0.35 0.33 0.28 0.28 0.28 0.26 0.27 0.28 0.30 0.29 0.28 0.25 0.24 0.23 0.20 0.19 0.22 0.17 0.12 0.12 0.12 0.12
0.48 0.46 0.48 0.48 0.45 0.46 0.46 0.46 0.49 0.49 0.48 0.50 0.43 0.60 0.62 0.53 0.49 0.53 0.52 0.52 0.50 0.48 0.44 0.43 0.39 0.36 0.36 0.32 0.32 0.32 0.28 0.27 0.27 0.24 0.30 0.26 0.28 0.24 0.25 0.21 0.21 0.17 0.15 0.15 0.14 0.12 0.12
Wind_Speed
11 11 12 13 14 14 13 14 14 15 15 14 14 14 14 13 12 11 11 10 9 10 10 10 13 12 10 9 9 12 12 9 8 7 7 8 8 9 9 9 9 9 9 10 9 9 11
10 11 12 13 14 14 14 14 15 15 15 15 14 15 14 13 12 12 12 11 11 11 12 12 13 12 10 9 11 13 10 8 9 9 10 10 10 10 9 10 10 10 8 10 12 12 13
11 11 12 13 13 14 14 15 15 15 16 15 15 15 15 14 13 13 13 13 13 14 14 14 13 12 10 10 10 11 9 9 11 11 10 11 11 10 10 10 9 10 11 13 14 15 16
11 12 13 13 13 14 14 15 15 16 16 16 16 16 16 15 14 15 15 14 15 15 15 15 13 12 10 10 9 10 11 11 11 11 10 11 10 10 11 11 12 13 13 14 15 17 17
12 13 13 14 14 15 15 15 16 16 17 17 17 17 17 17 16 16 17 17 16 18 15 13 13 12 11 10 9 12 12 11 12 11 12 12 12 12 12 12 14 14 15 16 18 18 19
13 13 13 14 14 15 15 15 16 17 18 18 18 19 18 18 18 17 18 18 16 17 15 14 13 11 11 12 12 13 13 12 12 13 13 13 13 13 14 14 14 15 17 19 20 20 21
13 13 14 14 15 16 16 16 17 18 19 19 19 19 19 19 18 18 18 16 16 15 15 13 14 13 13 14 12 13 14 13 13 13 13 15 14 15 14 15 15 16 18 20 20 21 24
14 14 14 15 15 16 17 17 18 19 19 20 21 20 21 21 19 18 18 15 15 16 16 15 14 13 13 13 12 15 15 13 14 14 16 15 15 15 15 16 16 18 19 21 22 22 24
14 15 15 15 15 16 17 18 19 19 20 21 22 22 22 22 18 18 16 15 16 16 15 15 14 13 13 12 11 15 14 15 15 14 15 14 16 17 17 17 18 19 20 21 23 26 27
17 17 17 17 17 17 18 18 19 20 22 22 23 23 23 22 17 19 17 17 18 18 15 12 12 11 11 12 13 15 17 17 16 15 15 15 17 16 18 19 19 21 19 21 24 25 24
20 20 20 20 20 20 20 21 21 22 23 24 25 25 24 21 20 19 19 18 18 17 14 12 12 12 12 12 17 17 19 18 16 16 16 17 18 18 18 19 20 20 22 24 24 24 26
23 23 23 23 24 24 24 24 24 25 26 26 27 27 25 23 22 21 20 19 18 15 15 14 15 14 16 17 19 21 19 17 16 16 17 19 18 19 20 20 20 21 21 23 23 23 23
29 28 28 28 28 28 28 28 28 28 28 28 29 28 26 26 24 23 21 20 18 13 15 15 18 20 20 21 21 19 18 18 18 19 19 19 20 19 20 20 21 21 22 23 23 22 23
31 31 32 33 33 33 32 32 32 31 32 32 32 30 28 27 25 23 22 20 18 18 19 20 20 22 22 21 19 20 20 21 21 19 19 20 23 20 20 21 21 22 21 18 23 23 27
33 34 35 35 36 37 36 36 36 36 36 35 35 33 31 29 27 25 24 22 22 21 21 22 23 22 21 20 22 23 23 23 20 19 18 19 22 22 22 22 22 20 20 21 21 24 26
35 36 36 37 38 39 39 40 39 39 39 38 37 35 33 30 28 28 27 27 26 25 25 25 25 23 25 23 23 23 23 22 21 21 22 21 24 23 22 23 23 23 20 20 22 23 25
35 36 37 37 36 37 37 38 38 38 38 37 35 33 30 28 28 27 26 27 27 27 26 25 27 28 29 28 27 27 25 25 24 22 22 22 23 24 23 24 22 22 24 22 22 22 24
36 36 36 35 36 36 36 36 36 35 35 33 32 31 28 27 27 25 24 24 25 25 25 27 29 30 30 27 28 28 29 27 24 23 24 24 24 26 26 26 26 26 24 22 23 25 26
37 37 37 37 37 36 36 36 35 34 34 32 31 31 30 29 27 26 28 29 29 26 26 25 27 26 25 27 27 28 28 28 26 25 24 24 26 26 26 26 26 26 26 25 25 26 27
39 39 39 39 38 38 37 37 36 35 33 31 31 30 28 28 31 29 29 31 30 30 29 28 29 28 27 29 29 30 29 28 27 27 27 25 28 28 30 27 25 27 27 28 27 26 28
41 41 41 41 40 40 39 39 38 36 35 33 33 33 32 31 31 33 34 34 33 33 32 33 33 33 28 30 29 30 28 28 29 29 27 26 30 29 32 32 31 31 30 30 31 33 30
43 43 43 43 42 42 41 40 39 36 36 35 35 33 35 39 39 37 35 35 34 34 32 34 35 33 32 31 30 28 27 27 29 26 25 27 28 27 31 33 33 37 33 34 34 34 38
45 45 44 44 44 43 42 42 41 39 38 37 37 38 37 37 35 34 35 36 36 32 35 35 34 31 33 36 33 31 31 31 30 28 28 27 27 26 29 27 30 33 34 29 26 28 31
45 45 45 45 45 45 44 44 43 42 41 40 39 38 39 43 39 38 38 38 38 37 38 34 34 33 33 31 30 30 30 31 31 31 30 28 25 25 27 27 26 27 24 26 28 27 27
46 46 45 45 46 45 45 45 44 44 44 43 42 40 40 44 42 42 44 43 41 41 40 38 36 36 34 32 30 30 29 29 29 29 28 28 26 25 25 26 33 30 26 24 23 28 26
48 48 48 48 47 47 47 46 45 45 45 45 45 43 41 43 45 42 41 40 40 38 38 38 36 36 35 32 30 30 29 28 25 25 25 26 26 26 24 25 26 24 22 22 23 27 22
52 52 52 51 50 49 48 47 47 46 46 46 46 45 43 43 45 42 43 43 38 38 37 34 32 31 32 31 31 31 30 28 27 26 24 24 25 29 27 26 29 24 21 20 21 24 22
51 54 53 53 52 51 50 49 48 47 47 46 46 46 44 44 46 44 43 41 40 39 37 35 32 33 31 31 30 29 29 28 26 26 24 23 21 22 22 23 27 18 19 21 24 23 24
50 49 50 51 52 51 51 50 48 47 46 45 47 44 44 42 44 42 44 44 42 40 38 36 35 33 31 30 30 27 27 26 26 25 23 24 24 21 22 21 22 21 23 23 23 24 26
Wind_Direction
353 355 356 357 356 354 352 351 350 349 347 344 345 345 344 344 344 342 341 338 335 332 326 318 320 319 315 316 311 318 319 317 317 312 315 306 307 304 305 304 305 304 294 302 297 301 298
345 348 349 351 353 354 353 351 349 348 347 344 341 341 340 339 339 337 335 332 327 327 324 319 320 318 312 307 306 316 314 310 317 314 314 309 302 302 304 304 305 302 300 290 297 295 292
343 343 344 346 348 350 351 351 350 349 348 345 342 340 337 333 330 330 326 323 319 316 315 314 314 313 313 302 305 316 310 307 311 308 304 308 299 301 298 302 293 294 299 297 298 292 293
340 340 340 341 342 344 345 347 348 348 348 345 342 339 335 332 324 322 321 314 317 317 314 310 310 309 301 302 300 313 310 302 309 309 303 307 307 302 302 295 304 301 299 294 297 298 290
331 333 334 335 336 337 338 339 341 343 344 343 340 336 333 329 324 319 318 311 307 314 310 308 307 304 296 295 298 308 310 301 301 303 310 304 303 303 303 300 303 303 294 294 297 301 294
326 329 330 331 332 333 334 334 336 337 339 339 337 334 330 327 323 319 318 313 306 309 307 303 302 302 301 293 291 305 303 303 302 299 303 308 306 302 303 301 292 293 295 297 295 302 298
325 325 327 327 329 329 330 331 332 333 334 335 335 333 331 327 323 320 319 315 314 309 316 303 297 293 291 295 287 306 306 298 300 306 303 305 307 300 296 296 296 299 298 297 298 300 300
324 324 325 325 325 325 326 327 328 329 331 332 332 331 329 327 322 321 320 318 313 308 306 302 295 291 289 289 290 305 309 301 305 302 301 303 300 296 297 298 296 298 297 295 299 299 302
319 320 323 324 324 324 323 324 326 327 328 328 329 328 327 325 321 322 323 319 315 312 307 302 298 292 286 285 287 299 305 301 304 302 305 299 299 297 297 300 295 297 295 296 297 303 298
310 312 313 314 316 319 320 320 321 323 324 325 325 325 325 324 317 318 317 315 314 313 311 302 302 298 291 284 291 300 303 300 300 291 295 296 296 294 296 295 295 296 297 299 300 306 300
300 302 304 305 307 309 311 313 314 316 318 319 320 321 321 322 313 313 310 309 310 311 308 302 302 296 296 293 294 301 304 301 293 292 291 294 295 296 297 298 299 299 300 300 299 298 305
295 296 297 299 301 302 303 305 307 311 312 314 315 315 314 313 311 309 307 305 307 309 290 297 296 297 296 296 296 298 300 301 293 294 298 295 297 300 301 303 300 300 301 302 302 302 302
291 292 293 294 296 297 298 300 301 304 308 309 310 310 309 308 304 304 304 304 303 291 295 292 294 297 296 296 296 298 299 297 292 296 292 294 294 298 301 302 302 305 306 303 304 305 298
289 291 291 290 291 291 293 295 296 297 301 304 305 304 303 303 300 299 299 300 287 289 287 293 293 294 291 295 290 295 295 293 290 291 292 292 297 295 300 301 302 303 299 296 296 301 301
290 290 291 291 290 288 289 291 292 293 295 298 299 299 297 295 294 293 294 290 283 284 289 292 293 291 290 290 291 293 287 289 287 283 285 292 292 296 299 300 300 300 296 298 299 297 302
289 291 291 290 290 289 288 288 288 290 292 295 294 293 292 289 289 289 287 282 282 283 285 288 286 285 288 288 291 290 287 286 286 286 289 290 295 294 295 298 300 294 296 303 302 301 298
291 291 291 291 292 292 291 290 289 290 290 291 291 290 291 287 289 288 283 281 284 284 282 281 283 285 283 286 285 286 283 286 285 287 288 289 291 296 298 291 291 295 294 297 297 293 295
291 291 291 291 291 293 293 291 289 289 292 289 286 286 285 286 286 284 283 285 287 287 288 285 286 284 281 282 284 284 282 284 282 282 284 283 289 290 290 296 295 291 288 287 293 293 294
290 290 290 290 291 291 293 293 292 288 287 287 286 285 283 281 279 278 281 282 284 285 286 284 286 282 285 284 287 282 283 287 279 279 280 280 286 295 296 298 296 289 287 288 295 296 288
290 289 290 289 289 290 290 291 291 286 285 285 283 282 281 279 281 277 278 281 282 285 283 282 286 286 285 285 281 286 285 284 280 279 278 279 282 281 284 292 294 289 289 281 282 291 294
288 288 288 288 288 288 289 290 290 285 283 282 277 278 277 277 277 278 276 277 278 282 279 281 283 279 280 283 287 283 282 282 282 278 278 279 282 283 285 286 286 285 285 280 273 277 285
287 287 287 286 285 285 286 287 286 283 280 277 276 276 279 279 280 277 274 277 276 281 277 281 278 281 275 277 279 283 283 281 278 274 273 277 285 288 288 286 286 286 283 280 279 278 282
287 286 286 286 285 285 284 283 284 280 279 278 276 275 275 276 278 277 276 276 279 279 277 279 274 280 277 276 282 284 283 283 277 271 269 274 280 288 290 295 296 292 284 278 286 289 284
286 286 285 285 286 285 284 282 280 279 275 276 275 275 274 275 272 272 275 276 277 276 282 283 277 276 282 283 283 282 285 284 277 272 270 271 276 284 290 295 291 295 297 300 285 294 289
285 285 285 286 285 284 284 282 280 277 275 274 273 273 272 273 273 272 272 274 278 279 277 276 274 277 278 281 283 282 285 283 279 272 270 269 272 281 289 289 295 294 291 292 293 297 293
285 285 285 285 284 283 283 281 280 278 275 273 272 271 271 273 271 272 274 273 277 276 278 275 277 273 275 274 276 277 276 277 282 282 277 269 273 274 287 289 290 295 295 296 301 301 300
284 284 284 283 282 282 282 280 279 277 275 272 271 268 270 271 273 271 272 272 271 275 276 274 275 272 273 273 272 273 274 274 273 273 275 270 273 270 276 284 290 290 289 294 304 302 304
285 284 283 282 281 281 279 279 278 276 275 272 272 267 268 271 273 272 270 271 273 270 273 272 271 272 271 269 271 274 273 271 274 274 273 268 270 279 274 280 288 285 293 292 299 305 305
286 287 284 282 281 280 279 277 277 276 274 271 271 270 268 269 272 273 272 272 272 272 271 264 269 270 267 269 269 274 273 274 273 276 272 275 274 279 270 282 290 275 295 294 299 303 305